Location: Unspecified
(42.2936°N, 3.1641°W)
Time: 06:58:59
(UTC+01:00)

Hubble Space Telescope - Visible Passes

Search period start: 04 March 2021 00:00
Search period end: 14 March 2021 00:00
Orbit: 535 x 539 km, 28.5° (Epoch: 03 March)

Date Brightness Start Highest point End Pass type
(mag) Time Alt. Az. Time Alt. Az. Time Alt. Az.
07 Mar 3.2 21:04:18 10° SSW 21:05:05 11° S 21:05:05 11° S visible
08 Mar 3.1 20:53:16 10° SSW 20:54:47 12° S 20:54:55 12° S visible
09 Mar 3.1 20:42:21 10° SSW 20:43:46 12° S 20:44:44 11° S visible
10 Mar 3.2 20:31:33 10° SSW 20:32:45 11° S 20:33:57 10° SSE visible
11 Mar 3.3 20:21:01 10° SSW 20:21:45 10° S 20:22:28 10° S visible
